GW1125 Weather Reports


Display with metric or nautical units.
time (UTC)temp
F
wind
direction
speed
MPH
gust
MPH
rain 1hr
in
rain 24hr
in
rain mn
in
humidity
%
barometer
mb
20260831203548 72 103 1.0 2.0 0.00 0.00 0.00 57 1009.1
20260831202530 71 135 2.0 4.0 0.00 0.00 0.00 58 1009.3
20260831201458 72 124 0.0 0.0 0.00 0.00 0.00 58 1009.1
20260831200430 71 329 3.0 3.0 0.00 0.00 0.00 60 1009.5
20260831195411 71 287 2.0 3.0 0.00 0.00 0.00 59 1009.7
20260831194347 71 101 2.0 2.0 0.00 0.00 0.00 61 1009.9
20260831193335 70 177 2.0 2.0 0.00 0.00 0.00 61 1009.9
20260831192312 70 21 4.0 6.0 0.00 0.00 0.00 61 1010.0
20260831191257 71 26 2.0 4.0 0.00 0.00 0.00 60 1010.2
20260831190250 69 110 2.0 2.0 0.00 0.00 0.00 62 1010.3
20260831185231 69 97 2.0 3.0 0.00 0.00 0.00 62 1010.6
20260831184159 69 104 1.0 2.0 0.00 0.00 0.00 64 1010.8
20260831183137 67 102 1.0 2.0 0.00 0.00 0.00 66 1010.9
20260831182120 67 97 1.0 1.0 0.00 0.00 0.00 68 1010.9
20260831181101 66 188 2.0 3.0 0.00 0.00 0.00 69 1011.0
20260831180041 67 68 1.0 2.0 0.00 0.00 0.00 70 1011.2
20260831175032 65 6 2.0 3.0 0.00 0.00 0.00 73 1011.2
20260831174012 64 96 2.0 3.0 0.00 0.00 0.00 73 1011.4
20260831172957 64 107 0.0 1.0 0.00 0.00 0.00 75 1011.4
20260831171947 64 106 0.0 0.0 0.00 0.00 0.00 75 1011.3
20260831170923 63 96 0.0 0.0 0.00 0.00 0.00 77 1011.6
20260831165917 62 100 0.0 0.0 0.00 0.00 0.00 79 1011.6
20260831164917 60 93 0.0 0.0 0.00 0.00 0.00 82 1011.8
20260831163906 59 115 1.0 1.0 0.00 0.00 0.00 83 1011.8
20260831162841 59 97 0.0 1.0 0.00 0.00 0.00 83 1011.9
20260831161830 58 109 1.0 1.0 0.00 0.00 0.00 83 1012.2
20260831160801 57 88 1.0 1.0 0.00 0.00 0.00 84 1012.3
20260831155746 56 99 0.0 0.0 0.00 0.00 0.00 85 1012.1
20260831154742 56 85 1.0 1.0 0.00 0.00 0.00 87 1012.3
20260831153724 55 91 0.0 0.0 0.00 0.00 0.00 88 1012.5
20260831152716 54 98 0.0 0.0 0.00 0.00 0.00 90 1012.6
20260831151654 53 96 0.0 0.0 0.00 0.00 0.00 94 1012.4
20260831150624 52 102 0.0 0.0 0.00 0.00 0.00 97 1012.5
20260831145550 51 103 0.0 0.0 0.00 0.00 0.00 98 1012.6
20260831144548 51 103 0.0 0.0 0.00 0.00 0.00 98 1012.3
20260831143519 50 104 0.0 0.0 0.00 0.00 0.00 98 1012.5
20260831142453 50 107 0.0 0.0 0.00 0.00 0.00 98 1012.4
20260831141432 49 106 0.0 0.0 0.00 0.00 0.00 98 1012.3
20260831140424 49 107 0.0 0.0 0.00 0.00 0.00 98 1012.5
20260831135402 49 106 0.0 0.0 0.00 0.00 0.00 98 1012.5
20260831134348 49 107 0.0 0.0 0.00 0.00 0.00 98 1012.4
20260831133337 49 106 0.0 0.0 0.00 0.00 0.00 97 1012.3
20260831132313 49 107 0.0 0.0 0.00 0.00 0.00 97 1012.3
20260831131257 49 107 0.0 0.0 0.00 0.00 0.00 97 1012.5
20260831130235 49 107 0.0 0.0 0.00 0.00 0.00 97 1012.5
20260831125222 49 107 0.0 0.0 0.00 0.00 0.00 97 1012.6
20260831124222 50 107 0.0 0.0 0.00 0.00 0.00 97 1012.7
20260831123206 51 107 0.0 0.0 0.00 0.00 0.00 97 1012.7
20260831122200 51 107 0.0 0.0 0.00 0.00 0.00 97 1012.8
20260831121140 51 107 0.0 0.0 0.00 0.00 0.00 96 1012.9
20260831120130 51 107 0.0 0.0 0.00 0.00 0.00 96 1012.7
20260831115112 51 107 0.0 0.0 0.00 0.00 0.00 96 1013.0
20260831114044 51 109 0.0 0.0 0.00 0.00 0.00 96 1012.8
20260831113038 51 106 0.0 0.0 0.00 0.00 0.00 96 1013.0
20260831112031 51 106 0.0 0.0 0.00 0.00 0.00 95 1013.1
20260831111021 51 106 0.0 0.0 0.00 0.00 0.00 95 1013.0
20260831110007 52 106 0.0 0.0 0.00 0.00 0.00 95 1013.2
20260831105000 51 106 0.0 0.0 0.00 0.00 0.00 95 1013.2
20260831103948 52 106 0.0 0.0 0.00 0.00 0.00 95 1013.4
20260831102919 51 106 0.0 0.0 0.00 0.00 0.00 95 1013.5
20260831101902 52 106 0.0 0.0 0.00 0.00 0.00 94 1013.5
20260831100902 52 109 0.0 0.0 0.00 0.00 0.00 94 1013.5
20260831095839 52 109 0.0 0.0 0.00 0.00 0.00 93 1013.6
20260831094837 52 109 0.0 0.0 0.00 0.00 0.00 93 1013.7
20260831093830 53 109 0.0 0.0 0.00 0.00 0.00 92 1014.0
20260831092817 53 109 0.0 0.0 0.00 0.00 0.00 92 1014.0
20260831091753 53 108 0.0 0.0 0.00 0.00 0.00 92 1014.1
20260831090721 53 108 0.0 0.0 0.00 0.00 0.00 91 1014.2
20260831085706 53 108 0.0 0.0 0.00 0.00 0.00 92 1014.2
20260831084704 53 108 0.0 0.0 0.00 0.00 0.00 91 1014.4
20260831083631 53 109 0.0 0.0 0.00 0.00 0.00 91 1014.3
20260831082602 53 108 0.0 0.0 0.00 0.00 0.00 91 1014.5
20260831081548 53 108 0.0 0.0 0.00 0.00 0.00 91 1014.5
20260831080529 53 108 0.0 0.0 0.00 0.00 0.00 91 1014.5
20260831075519 54 108 0.0 0.0 0.00 0.00 0.00 90 1014.6
20260831074453 54 108 0.0 0.0 0.00 0.00 0.00 89 1014.7
20260831073450 54 108 0.0 0.0 0.00 0.00 0.00 89 1014.8
20260831072429 54 108 0.0 0.0 0.00 0.00 0.00 89 1014.8
20260831071422 55 108 0.0 0.0 0.00 0.00 0.00 87 1014.9
20260831070348 55 108 0.0 0.0 0.00 0.00 0.00 86 1015.1
20260831065331 55 109 0.0 0.0 0.00 0.00 0.00 85 1014.9
20260831064307 56 109 0.0 0.0 0.00 0.00 0.00 84 1015.1
20260831063248 56 109 0.0 0.0 0.00 0.00 0.00 83 1015.3
20260831062233 58 109 0.0 0.0 0.00 0.00 0.00 80 1015.5
20260831061222 58 109 0.0 0.0 0.00 0.00 0.00 79 1015.6
20260831060155 58 107 0.0 0.0 0.00 0.00 0.00 79 1015.4
20260831055134 58 105 0.0 0.0 0.00 0.00 0.00 78 1015.5
20260831054113 58 105 0.0 0.0 0.00 0.00 0.00 78 1015.6
20260831053038 59 103 0.0 0.0 0.00 0.00 0.00 77 1015.8
20260831052034 60 102 0.0 0.0 0.00 0.00 0.00 75 1016.0
20260831051019 60 102 0.0 0.0 0.00 0.00 0.00 74 1015.8
20260831050014 60 102 0.0 0.0 0.00 0.00 0.00 73 1015.9
20260831044944 60 100 0.0 0.0 0.00 0.00 0.00 72 1016.1
20260831043910 61 103 0.0 0.0 0.00 0.00 0.00 71 1016.0
20260831042902 61 102 0.0 0.0 0.00 0.00 0.00 70 1016.1
20260831041841 62 103 0.0 0.0 0.00 0.00 0.00 69 1016.0
20260831040822 61 95 1.0 1.0 0.00 0.00 0.00 69 1016.0
20260831035822 62 108 0.0 0.0 0.00 0.00 0.00 68 1016.1
20260831034804 62 102 0.0 0.0 0.00 0.00 0.00 69 1016.0
20260831033732 62 83 0.0 1.0 0.00 0.00 0.00 67 1016.0
20260831032722 62 103 0.0 0.0 0.00 0.00 0.00 67 1016.0
20260831031712 62 86 0.0 0.0 0.00 0.00 0.00 68 1015.9
20260831030703 62 105 0.0 0.0 0.00 0.00 0.00 67 1015.9
20260831025656 63 104 0.0 0.0 0.00 0.00 0.00 65 1015.8
20260831024647 64 102 0.0 0.0 0.00 0.00 0.00 63 1016.0
20260831023631 65 107 0.0 0.0 0.00 0.00 0.00 61 1016.0
20260831022603 65 100 0.0 0.0 0.00 0.00 0.00 59 1016.1
20260831021529 66 82 0.0 0.0 0.00 0.00 0.00 58 1016.2
20260831020451 67 115 0.0 1.0 0.00 0.00 0.00 57 1016.3
20260831015427 67 105 0.0 0.0 0.00 0.00 0.00 56 1016.3
20260831014410 69 105 0.0 0.0 0.00 0.00 0.00 54 1016.3
20260831013405 69 74 1.0 2.0 0.00 0.00 0.00 53 1016.4
20260831012359 69 84 2.0 3.0 0.00 0.00 0.00 53 1016.4
20260831011339 70 102 1.0 2.0 0.00 0.00 0.00 53 1016.4
20260831010325 69 85 0.0 0.0 0.00 0.00 0.00 54 1016.6
20260831005242 70 149 1.0 2.0 0.00 0.00 0.00 54 1016.5
20260831004216 70 110 1.0 1.0 0.00 0.00 0.00 54 1016.5
20260831003211 71 101 0.0 0.0 0.00 0.00 0.00 52 1016.6
20260831002157 71 104 1.0 2.0 0.00 0.00 0.00 52 1016.7
20260831001148 72 130 1.0 1.0 0.00 0.00 0.00 49 1016.9
20260831000122 71 93 0.0 0.0 0.00 0.00 0.00 52 1017.0
20260830235119 71 11 4.0 6.0 0.00 0.00 0.00 52 1017.0
20260830234044 71 104 0.0 0.0 0.00 0.00 0.00 51 1017.1
20260830233034 73 98 1.0 2.0 0.00 0.00 0.00 50 1017.0
20260830232029 73 119 0.0 0.0 0.00 0.00 0.00 49 1017.3
20260830231009 73 102 0.0 1.0 0.00 0.00 0.00 50 1017.0
20260830225942 72 114 0.0 1.0 0.00 0.00 0.00 52 1017.3
20260830224939 73 119 0.0 1.0 0.00 0.00 0.00 50 1017.4
20260830223929 73 92 2.0 3.0 0.00 0.00 0.00 49 1017.5
20260830222905 74 130 0.0 1.0 0.00 0.00 0.00 50 1017.7
20260830221857 71 118 0.0 0.0 0.00 0.00 0.00 52 1017.7
20260830220832 73 76 2.0 2.0 0.00 0.00 0.00 48 1017.6
20260830215805 73 123 0.0 0.0 0.00 0.00 0.00 50 1017.7
20260830214805 71 112 0.0 0.0 0.00 0.00 0.00 51 1017.8
20260830213734 72 99 2.0 3.0 0.00 0.00 0.00 52 1018.2
20260830212709 69 97 1.0 1.0 0.00 0.00 0.00 58 1018.1
20260830211645 66 96 1.0 2.0 0.00 0.00 0.00 62 1018.4
20260830210627 66 52 1.0 1.0 0.00 0.00 0.00 62 1018.5
20260830205609 66 103 0.0 0.0 0.00 0.00 0.00 65 1018.6
20260830204609 66 103 0.0 0.0 0.00 0.00 0.00 65 1018.5